[[{"header":{"parameterUnit":"m.s-1","parameterCategory":1,"la1":30.2991,"la2":30.254,"lo1":-89.0895,"lo2":-89.0444,"dy":0.0017,"dx":0.0017,"nx":28,"ny":28,"refTime":"2025-03-15T03:00:00:Z","depth":0,"parameterNumber":2,"parameterNumberName":"U-component_of_WINDS"},"data":[0,0,0,0,0,0,0,0,0,0,0,0,0,0,0,0,0,0,0,0,0,0,0,0,0,0,0,0,0,0,0,0,0,0,0,0,0,0,0,0,0,0,0,0,0,0,0,0,0,0,0,0,0,0,0,0,0,0,-4.1516,-4.1517,0,-4.167,-4.1672,-4.1674,-4.1716,-4.1715,-4.1714,-4.1714,-4.1874,-4.1879,-4.1884,0,0,0,0,0,0,0,0,0,0,0,0,0,-4.126,-4.1265,-4.1515,-4.1517,-4.1519,-4.167,-4.1672,-4.1674,-4.1716,-4.1715,-4.1714,-4.1713,-4.1873,-4.1879,-4.1885,0,0,0,0,0,0,0,0,0,0,0,0,0,-4.1389,-4.1266,-4.1515,-4.1558,-4.1564,-4.1669,-4.1672,-4.1675,-4.1717,-4.1715,-4.1714,-4.1713,-4.1871,-4.1878,-4.1886,-4.196,0,0,-4.1909,-4.1912,0,0,0,0,0,0,0,0,-4.1381,-4.1398,-4.155,-4.1556,-4.1562,-4.1672,-4.1641,-4.177,-4.1717,-4.1659,-4.1714,-4.1712,-4.1808,-4.1821,-4.1853,-4.1967,-4.1974,-4.191,-4.1914,-4.1918,-4.192,0,0,0,0,0,0,0,-4.1372,-4.1392,-4.1577,-4.1552,-4.156,-4.1571,-4.1588,-4.1666,-4.1739,-4.1664,-4.1667,-4.1685,-4.1811,-4.1846,-4.1857,-4.1976,-4.1909,-4.1916,-4.1921,-4.1924,-4.2161,-4.2163,0,0,0,0,0,0,-4.1356,-4.1384,-4.1572,-4.1581,-4.1466,-4.1577,-4.1596,-4.1638,-4.1738,-4.1752,-4.1686,-4.1686,-4.1833,-4.1848,-4.1863,-4.1957,-4.1918,-4.1925,-4.1929,-4.216,-4.2162,-4.2163,0,0,0,0,0,0,-4.135,-4.1372,-4.1566,-4.1484,-4.1509,-4.1583,-4.163,-4.1642,-4.1676,-4.1755,-4.1769,-4.1707,-4.1833,-4.1852,-4.1936,-4.1963,-4.1928,-4.1935,-4.2158,-4.216,-4.2163,-4.2144,0,0,0,0,0,0,-4.1343,-4.137,-4.1397,-4.1484,-4.1513,-4.1634,-4.1632,-4.1646,-4.1689,-4.1691,-4.1779,-4.1792,-4.1833,-4.1924,-4.1943,-4.1973,-4.1941,-4.2155,-4.2159,-4.2162,-4.2143,-4.2146,-4.2149,0,0,0,0,0,-4.1333,-4.1386,-4.1399,-4.1421,-4.155,-4.1636,-4.1653,-4.1698,-4.1691,-4.172,-4.1772,-4.1789,-4.1957,-4.1932,-4.1954,-4.1986,-4.2154,-4.2158,-4.2161,-4.2142,-4.2145,-4.2149,0,0,0,0,0,0,-4.1302,-4.1398,-4.1413,-4.1496,-4.1557,-4.1643,-4.1681,-4.1701,-4.1766,-4.1765,-4.182,-4.184,-4.1919,-4.1962,-4.1932,-4.2065,-4.2056,-4.2064,-4.2033,-4.2038,-4.2041,-4.2028,-4.1947,0,0,0,0,0,-4.1304,-4.1365,-4.1447,-4.1512,-4.1542,-4.1606,-4.1645,-4.1675,-4.1742,-4.1768,-4.1825,-4.1889,-4.1957,-4.2,-4.2066,-4.215,-4.217,-4.2184,-4.2187,-4.2189,-4.2195,-4.2243,-4.225,-4.2176,-4.2176,-4.2176,0,0,-4.131,-4.1371,-4.1406,-4.1507,-4.1558,-4.1621,-4.1627,-4.1693,-4.1741,-4.1778,-4.186,-4.1904,-4.198,-4.2064,-4.2104,-4.2102,-4.222,-4.2193,-4.2194,-4.22,-4.2248,-4.2255,-4.2261,-4.2179,-4.2178,-4.2178,0,0,-4.1352,-4.1404,-4.1464,-4.1516,-4.1593,-4.1636,-4.165,-4.1734,-4.1764,-4.1848,-4.1877,-4.1936,-4.205,-4.2103,-4.2145,-4.2211,-4.2229,-4.2231,-4.2246,-4.2292,-4.2298,-4.2304,-4.2327,-4.2334,-4.2237,-4.2237,-4.2237,0,-4.135,-4.1445,-4.1493,-4.1558,-4.1602,-4.1639,-4.1701,-4.1749,-4.1844,-4.1875,-4.1871,-4.2017,-4.2071,-4.2168,-4.2184,-4.2217,-4.2236,-4.222,-4.2293,-4.2299,-4.2305,-4.2328,-4.2336,-4.2237,-4.2237,-4.2237,-4.2237,0,-4.1438,-4.1504,-4.1543,-4.1634,-4.1683,-4.1746,-4.1805,-4.1849,-4.1876,-4.192,-4.2005,-4.2071,-4.2152,-4.2178,-4.2204,-4.2279,-4.2276,-4.2282,-4.2274,-4.2311,-4.2333,-4.2342,-4.2236,-4.2236,-4.2237,-4.2237,0,0,-4.1462,-4.158,-4.1594,-4.1636,-4.1725,-4.1777,-4.1843,-4.1922,-4.1959,-4.2025,-4.2082,-4.2179,-4.2186,-4.2234,-4.2268,-4.2309,-4.2357,-4.231,-4.2313,-4.2316,-4.2444,-4.2437,-4.2447,-4.2371,-4.2372,-4.2374,-4.2437,0,-4.1516,-4.1633,-4.1679,-4.1775,-4.1837,-4.1874,-4.1932,-4.1993,-4.2037,-4.2097,-4.2145,-4.2213,-4.2217,-4.2246,-4.2289,-4.2341,-4.2383,-4.2338,-4.2425,-4.2427,-4.2403,-4.2458,-4.2452,-4.2508,-4.2446,-4.2448,-4.2449,0,-4.1592,-4.1658,-4.1759,-4.1842,-4.187,-4.1921,-4.1997,-4.2054,-4.2126,-4.2155,-4.2209,-4.224,-4.2313,-4.2302,-4.2402,-4.2371,-4.241,-4.2441,-4.2445,-4.2453,-4.2439,-4.2468,-4.2527,-4.2535,-4.2463,-4.2462,-4.2461,0,-4.1599,-4.1714,-4.1789,-4.1824,-4.1923,-4.1958,-4.2001,-4.2071,-4.2116,-4.2184,-4.2214,-4.229,-4.2331,-4.2389,-4.2441,-4.2429,-4.2537,-4.2531,-4.2564,-4.2562,-4.2583,-4.2581,-4.2649,-4.261,-4.261,-4.261,-4.261,0,-4.1653,-4.1714,-4.1794,-4.184,-4.191,-4.1964,-4.2032,-4.2078,-4.2141,-4.2198,-4.2236,-4.2289,-4.2355,-4.2417,-4.2459,-4.2536,-4.2555,-4.258,-4.259,-4.2576,-4.2573,-4.2601,-4.2598,-4.2612,-4.2612,-4.2611,-4.2611,0,-4.1671,-4.1728,-4.1813,-4.19,-4.1923,-4.197,-4.2046,-4.2093,-4.2139,-4.2211,-4.2231,-4.2303,-4.2379,-4.2437,-4.2535,-4.2563,-4.2645,-4.2656,-4.262,-4.2625,-4.2654,-4.265,-4.2741,-4.2756,-4.2708,-4.2709,-4.2709,0,-4.1701,-4.1749,-4.1841,-4.1881,-4.1924,-4.1989,-4.2035,-4.2091,-4.2138,-4.2224,-4.2262,-4.234,-4.2404,-4.2524,-4.2585,-4.2661,-4.2674,-4.2701,-4.2686,-4.267,-4.2674,-4.267,-4.2675,-4.2702,-4.2703,-4.2703,-4.2703,0,-4.1748,-4.1774,-4.1838,-4.1913,-4.1966,-4.2028,-4.2091,-4.2122,-4.219,-4.2241,-4.2318,-4.2369,-4.2469,-4.2546,-4.2629,-4.2675,-4.2701,-4.2708,-4.2719,-4.2704,-4.2681,-4.2694,-4.2624,-4.2705,-4.2705,-4.2705,-4.2705,-4.2704,-4.1773,-4.1817,-4.1889,-4.196,-4.2013,-4.2071,-4.212,-4.2172,-4.2237,-4.2322,-4.2353,-4.2432,-4.2505,-4.2618,-4.2665,-4.2729,-4.273,-4.2747,-4.2751,-4.2754,-4.2753,-4.2672,-4.2745,-4.2745,-4.2745,-4.2745,-4.2745,0,-4.1821,-4.187,-4.1935,-4.2021,-4.2077,-4.2096,-4.2167,-4.2213,-4.2282,-4.2348,-4.2411,-4.2501,-4.2576,-4.2645,-4.2724,-4.2762,-4.2776,-4.2781,-4.2778,-4.2789,-4.2747,-4.2729,-4.2769,-4.2769,-4.2769,-4.2769,-4.2768,-4.2768,-4.1853,-4.1929,-4.1964,-4.2067,-4.2116,-4.2193,-4.2232,-4.2286,-4.2339,-4.2436,-4.2499,-4.2543,-4.2611,-4.2695,-4.2766,-4.2785,-4.2812,-4.2814,-4.2835,-4.2795,-4.2791,-4.2788,-4.2771,-4.2819,-4.2819,-4.2871,-4.2872,-4.2872]},{"header":{"parameterUnit":"m.s-1","parameterCategory":1,"la1":30.2991,"la2":30.254,"lo1":-89.0895,"lo2":-89.0444,"dy":0.0017,"dx":0.0017,"nx":28,"ny":28,"refTime":"2025-03-15T03:00:00:Z","depth":0,"parameterNumber":3,"parameterNumberName":"V-component_of_WINDS"},"data":[0,0,0,0,0,0,0,0,0,0,0,0,0,0,0,0,0,0,0,0,0,0,0,0,0,0,0,0,0,0,0,0,0,0,0,0,0,0,0,0,0,0,0,0,0,0,0,0,0,0,0,0,0,0,0,0,0,0,7.2553,7.2553,0,7.2597,7.2597,7.2598,7.2548,7.2546,7.2544,7.2543,7.2582,7.2585,7.2588,0,0,0,0,0,0,0,0,0,0,0,0,0,7.2423,7.2426,7.2553,7.2553,7.2554,7.2597,7.2597,7.2598,7.2548,7.2546,7.2544,7.2542,7.2581,7.2585,7.2588,0,0,0,0,0,0,0,0,0,0,0,0,0,7.2474,7.2427,7.2553,7.2535,7.2533,7.2596,7.2597,7.2598,7.2549,7.2546,7.2543,7.2541,7.258,7.2584,7.2589,7.267,0,0,7.2601,7.2603,0,0,0,0,0,0,0,0,7.2471,7.2479,7.2537,7.2536,7.2535,7.2564,7.2566,7.2622,7.255,7.2543,7.2543,7.2539,7.2578,7.2582,7.2596,7.2672,7.2673,7.2602,7.2604,7.2606,7.2607,0,0,0,0,0,0,0,7.2468,7.2477,7.257,7.2538,7.2536,7.2523,7.2527,7.2576,7.2575,7.2543,7.254,7.2546,7.2577,7.2593,7.2597,7.2674,7.2602,7.2605,7.2608,7.2609,7.2821,7.2824,0,0,0,0,0,0,7.2467,7.2474,7.2569,7.2571,7.2496,7.2528,7.2532,7.2557,7.2575,7.2575,7.2548,7.2543,7.2587,7.2592,7.2598,7.2697,7.2606,7.261,7.2612,7.2818,7.2822,7.2825,0,0,0,0,0,0,7.2465,7.2476,7.2567,7.2522,7.2533,7.2533,7.2561,7.256,7.2575,7.2579,7.2578,7.2565,7.2585,7.2592,7.2653,7.2698,7.2612,7.2616,7.2814,7.2819,7.2823,7.2894,0,0,0,0,0,0,7.2461,7.2475,7.2507,7.2523,7.2535,7.2623,7.2564,7.2563,7.2583,7.2577,7.2594,7.2594,7.2583,7.2648,7.2658,7.2702,7.2619,7.281,7.2816,7.2822,7.2888,7.2901,7.2911,0,0,0,0,0,7.2457,7.2523,7.2509,7.252,7.2575,7.2625,7.2632,7.262,7.2587,7.2619,7.2621,7.2593,7.2691,7.2654,7.2665,7.2711,7.2807,7.2815,7.2821,7.2882,7.2898,7.2911,0,0,0,0,0,0,7.251,7.2525,7.2509,7.2583,7.2604,7.2617,7.2656,7.2636,7.2665,7.2658,7.264,7.2645,7.271,7.2716,7.2675,7.2792,7.2744,7.2753,7.2786,7.2801,7.2813,7.281,7.2622,0,0,0,0,0,7.253,7.2572,7.2582,7.2646,7.2658,7.2656,7.2677,7.2666,7.2686,7.2693,7.27,7.2719,7.2754,7.2778,7.281,7.2888,7.2892,7.2925,7.2937,7.2947,7.2956,7.3,7.3016,7.2848,7.2848,7.2848,0,0,7.2573,7.2586,7.2613,7.2657,7.2672,7.2714,7.2663,7.2709,7.274,7.27,7.2759,7.2765,7.2785,7.2856,7.2887,7.2863,7.3003,7.2956,7.2963,7.2967,7.3009,7.3025,7.3039,7.2853,7.2852,7.2851,0,0,7.2673,7.2686,7.2743,7.276,7.2784,7.2782,7.2796,7.2813,7.2816,7.2875,7.2847,7.2883,7.2943,7.296,7.2976,7.3085,7.3061,7.3095,7.3158,7.3201,7.3214,7.3226,7.3267,7.3282,7.3104,7.3104,7.3104,0,7.2722,7.2786,7.2774,7.2824,7.2845,7.2813,7.2871,7.2886,7.2918,7.2933,7.2906,7.2984,7.2994,7.307,7.3097,7.311,7.3126,7.3094,7.3214,7.3225,7.3236,7.3275,7.329,7.3108,7.3108,7.3107,7.3107,0,7.2847,7.2892,7.2935,7.2971,7.2996,7.3049,7.3045,7.3071,7.3059,7.3061,7.3123,7.3135,7.3171,7.3187,7.3174,7.3262,7.3246,7.3217,7.3168,7.3256,7.3293,7.3307,7.3114,7.3113,7.3112,7.3111,0,0,7.2981,7.3011,7.3027,7.3045,7.3069,7.3103,7.3155,7.3192,7.3217,7.324,7.3284,7.3337,7.3311,7.3329,7.3318,7.3356,7.3444,7.3321,7.3322,7.3346,7.3544,7.3568,7.3585,7.3428,7.3431,7.3433,7.3543,0,7.3083,7.3176,7.3168,7.3255,7.3298,7.3269,7.3314,7.3334,7.3337,7.3373,7.3374,7.3414,7.3375,7.3386,7.3422,7.3426,7.3484,7.3418,7.3469,7.3471,7.3467,7.3604,7.3629,7.3732,7.3557,7.3559,7.3561,0,7.3215,7.3247,7.334,7.3361,7.3379,7.342,7.3455,7.3489,7.3511,7.351,7.3533,7.3516,7.3567,7.3517,7.3589,7.3544,7.3564,7.3569,7.3573,7.3579,7.3523,7.3615,7.3764,7.3781,7.3583,7.3581,7.358,0,7.3306,7.3372,7.3437,7.3452,7.3478,7.3508,7.352,7.3539,7.3563,7.3593,7.3608,7.3642,7.3662,7.3688,7.3681,7.3644,7.3755,7.3703,7.3757,7.3758,7.3783,7.3782,7.3939,7.3793,7.3793,7.3792,7.3792,0,7.3423,7.3481,7.3479,7.3519,7.3584,7.3574,7.3638,7.3645,7.3664,7.3704,7.368,7.3718,7.3705,7.3743,7.3736,7.3799,7.3806,7.3808,7.3806,7.3811,7.3812,7.3825,7.3819,7.3796,7.3795,7.3795,7.3794,0,7.3536,7.3537,7.3607,7.3627,7.3633,7.368,7.3697,7.3734,7.3736,7.3788,7.3799,7.3801,7.3845,7.384,7.3887,7.3883,7.3961,7.3949,7.3954,7.3952,7.4007,7.4003,7.4181,7.4205,7.4041,7.4042,7.4044,0,7.3612,7.3657,7.3683,7.371,7.3725,7.3767,7.3793,7.3784,7.3811,7.3841,7.3875,7.3917,7.395,7.402,7.4025,7.4062,7.4052,7.4112,7.4057,7.4062,7.4056,7.4054,7.4059,7.4123,7.4125,7.4126,7.4128,0,7.3746,7.3745,7.3783,7.3823,7.3855,7.3885,7.3912,7.3934,7.3928,7.396,7.4006,7.4031,7.4082,7.4124,7.4159,7.4169,7.4148,7.4145,7.416,7.4166,7.4169,7.4171,7.3986,7.4141,7.414,7.4139,7.4138,7.4137,7.3844,7.3884,7.391,7.3954,7.3974,7.4001,7.4039,7.4046,7.4085,7.4127,7.4118,7.417,7.4192,7.4238,7.4252,7.4292,7.427,7.4291,7.4296,7.4302,7.431,7.4161,7.4298,7.4298,7.4297,7.4297,7.4297,0,7.3979,7.3995,7.4036,7.4077,7.4112,7.4091,7.412,7.4151,7.4198,7.4221,7.4255,7.4308,7.4349,7.4359,7.4398,7.4428,7.442,7.4439,7.4438,7.4441,7.4326,7.4311,7.4446,7.4446,7.4445,7.4445,7.4445,7.4445,7.4054,7.4122,7.4124,7.4201,7.4216,7.4269,7.4288,7.4312,7.4332,7.4393,7.4428,7.4435,7.4453,7.4494,7.453,7.4532,7.4548,7.4572,7.457,7.4463,7.4448,7.4434,7.442,7.4575,7.4576,7.4682,7.4683,7.4684]}]]